STARLINK-5753, 55581

Orbit data source: Space-Track

STARLINK-5753, 55581 is a payload satellite owned by SpaceX/Seattle (US) in LEO that was launched on Sun, 12 Feb 2023 UTC via an FALCON 9 launch vehicle from the Air Force Eastern Test Range (AFETR). Payload-class satellites include a variety of spacecraft equipped with specific instruments for various scientific and technological missions. These include communications satellites like Starlink; space stations such as the ISS; scientific satellites like the Hubble; Earth observation satellites from companies like Planet Labs, Umbra, and HawkEye 360; GPS; miniature CubeSats for education and research; and military/defense satellites.

Loading next visibility...
Identifier
55581, 2023-020N
Orbit
LEO
Country
Flag of USUS
Related business
Manufacturer
SpaceX/Seattle
Mission
Operational Commercial Communications
Bus & Motor
STARLINK, Unknown motor
Mass
305 kg wet, ~290 kg dry
Launch date (UTC)
2023-02-12 (3 years ago)
Launch vehicle
FALCON 9
Launch site
Air Force Eastern Test Range (AFETR)
Object type
Payload
Rocket body
Debris
Shape & HBR
Box + 1 Pan, 10.1 m
Radar Cross Section
13.562 m², Large (>1 m²)

Expand to show TLE details & history
Last TLE update: 2 days ago

TLE from 2 days ago
0 STARLINK-5753
1 55581U 23020N   26171.22620305  .00000823  00000-0  39431-4 0  9995
2 55581  43.0021 153.0157 0001205 266.8990  93.1724 15.27575903184515
Epoch: 2026-06-20T05:25Z
TLE epoch observation values (Epoch: 2026-06-20T05:25:43.943Z)
Latitude
-0.00001°
Longitude
163.13873°
Altitude
482.883 km
Speed
7.626 km/s
True Right ascension
10h 12m 03s
True Declination
0° 00' 00"
Sunlit
Object was in daylight at epoch
Visualization orbit readout
Latitude
Unknown
Longitude
Unknown
Altitude
Unknown
Speed
Unknown
Apparent Right ascension
Unknown
Apparent Declination
Unknown
Sunlit
N/A
Visualization observer readout
Local Sidereal Time
21:43:08
Azimuth
Unknown
Elevation
Unknown
Doppler factor
Unknown
Orbital elements
Apogee altitude
485.833 km
Perigee altitude
484.179 km
Semi-major axis
6,863.143 km
Eccentricity
0.00012
Inclination
43.0021°
RAAN
153.0157°
Arg. of periapsis
266.899°
True anomaly
93.18619°
Mean anomaly
93.1724°
Eccentric anomaly
93.17929°
Mean motion
3.81732 °/min
Orbital period
94.31 mins
BSTAR
0.000039431
Loading maneuver chart data...
Computing Atmospheric mass density...
Loading historical data...
Loading historical data...
Loading historical data...
Loading historical data...
Loading historical data...
Loading historical data...
Loading historical data...

Documentation

Showing up to 5 results
|